Homer, AK

1:25 PM AKST on November 25, 2014 (GMT -0900)
Soldotna | Change Station
CLOSE
Current Station
Airport
Location: Soldotna,
Elevation: 112 ft
Nearby Weather Stations

Elev 112 ft 60.48 °N, 151.03 °W | Updated 9 minutes ago

Overcast
Overcast
28 °F
Feels Like 23 °F
N
5
Wind Variable Wind from East

Today
High -- | Low -- °F
--% Chance of Precip.
Yesterday
High -- | Low -- °F
Precip. -- in
9:26 AM 4:19 PM
Waxing Crescent, 14% visible
Pressure 30.20 in
Visibility 10.0 miles
Clouds Overcast 2000 ft
Windchill 23 °F
Dew Point 27 °F
Humidity 93%
Rainfall 0.00 in
Snow Depth Not available.
UV 0 out of 12
Pollen Not available.
Air Quality Not available.
Flu Activity Not available.
METAR PASX 252216Z AUTO 09004KT 10SM OVC020 M02/M03 A3020 RMK AO1

More Conditions Fewer Conditions

Pressure 30.20 in
Visibility 10.0 miles
Clouds Overcast 2000 ft
Windchill 23 °F
Dew Point 27 °F
Humidity 93%
Rainfall 0.00 in
Snow Depth Not available.
UV 0 out of 12
Pollen Not available.
Air Quality Not available.
Flu Activity Not available.
METAR PASX 252216Z AUTO 09004KT 10SM OVC020 M02/M03 A3020 RMK AO1

More Conditions Fewer Conditions

10-Day Weather Forecast

Almanac

Astronomy

Nov. 25, 2014 Rise Set
Actual Time
Civil Twilight
Nautical Twilight
Astronomical Twilight
Moon
Length of Visible Light
Length of Day
Tomorrow will be .
, % of the Moon is Illuminated

Today's Extremes

State Highs State Lows

Community

WunderPhotos

Upload Photos

1,773,608 photos uploaded!

WunderBlogs® & News

Nearby

Air Quality

  Air Quality AQ Index Pollutant
Not available.

Snow Depth

Station Depth Elevation

Earthquake Activity

City Distance Mag. Time & Date
Minimum magnitude displayed is 2.5.

Coastal Water Temperatures

Place Temperature

Nearby Weather Stations